Change the Weather History Date:

Friday, April 12, 2013

  Actual Average (KAND) Record (KAND)
Temperature  
Mean Temperature 68 °F -  
Max Temperature 79 °F 73 °F 86 °F (1981)
Min Temperature 55 °F 48 °F 31 °F (1989)
Cooling Degree Days 3    
Growing Degree Days 18 (Base 50)    
Moisture  
Dew Point 58 °F    
Average Humidity 73    
Maximum Humidity 96    
Minimum Humidity 21    
Precipitation  
Precipitation 0.32 in - - ()
Sea Level Pressure  
Sea Level Pressure 29.75 in    
Wind  
Wind Speed 12 mph (SW)    
Max Wind Speed 22 mph    
Max Gust Speed 33 mph    
Visibility 9 miles    
Events Rain , Thunderstorm    
Averages and records for this station are not official NWS values.
T = Trace of Precipitation, MM = Missing Value Source: NWS Daily Summary

Daily Weather History Graph

Daily Weather History Graph

Search for Another Location

Airport or City:

Trip Planner

Search our weather history database for the weather conditions in past years. The results will help you decide how hot, cold, wet, or windy it might be!

Date:

Astronomy

Apr. 12, 2013 Rise Set
Actual Time 7:00 AM EDT 7:58 PM EDT
Civil Twilight 6:35 AM EDT 8:23 PM EDT
Nautical Twilight 6:04 AM EDT 8:54 PM EDT
Astronomical Twilight 5:33 AM EDT 9:25 PM EDT
Moon 8:15 AM EDT (4/12) 10:21 PM EDT (4/12)
Length of Visible Light 13h 48m
Length of Day
12h 57m
Waxing Crescent, 5% of the Moon is Illuminated
Apr 12
Waxing Crescent
Apr 18
First Quarter
Apr 25
Full
May 2
Last Quarter
May 9
New

Hourly Weather History & Observations

Time (EDT) Temp. Dew Point Humidity Pressure Visibility Wind Dir Wind Speed Gust Speed Precip Events Conditions
12:31 AM 69.8 °F 66.2 °F 88% 29.77 in 10.0 mi South 15.0 mph - 0.03 in   Overcast
12:56 AM 70.0 °F 66.9 °F 90% 29.75 in 10.0 mi South 11.5 mph 20.7 mph 0.03 in   Overcast
1:03 AM 69.8 °F 66.2 °F 88% 29.77 in 10.0 mi South 11.5 mph 20.7 mph 0.00 in Thunderstorm Overcast
1:41 AM 69.8 °F 66.2 °F 88% 29.75 in 10.0 mi South 13.8 mph 20.7 mph 0.00 in Rain Light Rain
1:48 AM 69.8 °F 66.2 °F 88% 29.75 in 9.0 mi South 13.8 mph 20.7 mph 0.01 in Rain , Thunderstorm Light Rain
1:56 AM 69.1 °F 66.9 °F 93% 29.74 in 8.0 mi SSW 12.7 mph - 0.01 in Rain , Thunderstorm Light Rain
2:05 AM 69.8 °F 66.2 °F 88% 29.75 in 4.0 mi SW 12.7 mph - 0.04 in Rain Heavy Rain
2:16 AM 69.8 °F 66.2 °F 88% 29.77 in 3.0 mi SSW 15.0 mph 19.6 mph 0.11 in Rain , Thunderstorm Rain
2:23 AM 69.8 °F 66.2 °F 88% 29.74 in 2.0 mi SSW 11.5 mph 23.0 mph 0.20 in Rain , Thunderstorm Heavy Rain
2:28 AM 69.8 °F 66.2 °F 88% 29.75 in 3.0 mi South 12.7 mph 23.0 mph 0.22 in Rain , Thunderstorm Rain
2:39 AM 69.8 °F 66.2 °F 88% 29.74 in 8.0 mi SSW 16.1 mph 25.3 mph 0.24 in Rain Light Rain
2:56 AM 66.9 °F 63.0 °F 87% 29.71 in 9.0 mi SW 15.0 mph 26.5 mph 0.25 in Rain Light Rain
3:56 AM 64.9 °F 62.1 °F 90% 29.71 in 10.0 mi SW 10.4 mph - 0.02 in   Overcast
4:56 AM 64.0 °F 63.0 °F 96% 29.70 in 10.0 mi South 5.8 mph - 0.01 in   Overcast
5:41 AM 64.4 °F 62.6 °F 94% 29.71 in 10.0 mi South 8.1 mph - N/A   Mostly Cloudy
5:56 AM 66.0 °F 64.0 °F 93% 29.70 in 10.0 mi SSW 10.4 mph - N/A   Overcast
6:03 AM 66.2 °F 64.4 °F 94% 29.71 in 10.0 mi SSW 10.4 mph - N/A   Overcast
6:56 AM 68.0 °F 64.9 °F 90% 29.70 in 10.0 mi SSW 13.8 mph 20.7 mph N/A   Overcast
7:44 AM 66.2 °F 64.4 °F 94% 29.74 in 10.0 mi SW 10.4 mph - N/A   Overcast
7:56 AM 66.9 °F 64.9 °F 93% 29.73 in 10.0 mi SW 9.2 mph - N/A   Overcast
8:15 AM 68.0 °F 64.4 °F 88% 29.74 in 10.0 mi WSW 8.1 mph - N/A   Overcast
8:30 AM 66.2 °F 64.4 °F 94% 29.75 in 10.0 mi WSW 9.2 mph - N/A   Overcast
8:56 AM 66.9 °F 64.9 °F 93% 29.74 in 10.0 mi WSW 8.1 mph - N/A   Overcast
9:38 AM 68.0 °F 62.6 °F 83% 29.77 in 10.0 mi WSW 8.1 mph - N/A   Overcast
9:56 AM 68.0 °F 63.0 °F 84% 29.76 in 10.0 mi WSW 8.1 mph - N/A   Overcast
10:56 AM 70.0 °F 61.0 °F 73% 29.76 in 10.0 mi WSW 8.1 mph - N/A   Overcast
11:56 AM 72.0 °F 60.1 °F 66% 29.77 in 10.0 mi WSW 10.4 mph - N/A   Mostly Cloudy
12:56 PM 75.9 °F 57.9 °F 54% 29.76 in 10.0 mi SW 12.7 mph 23.0 mph N/A   Clear
1:56 PM 77.0 °F 52.0 °F 42% 29.74 in 10.0 mi West 17.3 mph 24.2 mph N/A   Mostly Cloudy
2:56 PM 79.0 °F 48.9 °F 35% 29.75 in 10.0 mi SW 21.9 mph 27.6 mph N/A   Clear
3:56 PM 77.0 °F 34.0 °F 21% 29.74 in 10.0 mi WSW 21.9 mph 33.4 mph N/A   Clear
4:56 PM 77.0 °F 35.1 °F 22% 29.73 in 10.0 mi West 13.8 mph 33.4 mph N/A   Clear
5:56 PM 73.9 °F 39.0 °F 28% 29.75 in 10.0 mi WSW 19.6 mph 27.6 mph N/A   Clear
6:56 PM 71.1 °F 39.9 °F 32% 29.77 in 10.0 mi West 11.5 mph 19.6 mph N/A   Clear
7:56 PM 66.9 °F 39.0 °F 36% 29.78 in 10.0 mi West 11.5 mph - N/A   Clear
8:56 PM 63.0 °F 39.0 °F 41% 29.80 in 10.0 mi WSW 10.4 mph - N/A   Clear
9:56 PM 61.0 °F 39.9 °F 46% 29.81 in 10.0 mi WSW 9.2 mph - N/A   Clear
10:56 PM 57.9 °F 39.9 °F 51% 29.84 in 10.0 mi SSW 6.9 mph - N/A   Clear
11:56 PM 55.0 °F 39.9 °F 57% 29.86 in 10.0 mi SW 4.6 mph - N/A   Clear